| time (UTC) | temp F | wind direction | speed knots | gust knots | rain 1hr in | rain 24hr in | rain mn in | humidity % | barometer mb |
| 20260508183914 | 64 | 247 | 0.9 | 2.6 | 0.00 | 0.00 | 0.00 | 38 | 1019.8 |
| 20260508183013 | 64 | 245 | 3.5 | 4.3 | 0.00 | 0.00 | 0.00 | 38 | 1019.8 |
| 20260508182014 | 64 | 219 | 0.9 | 3.5 | 0.00 | 0.00 | 0.00 | 37 | 1020.1 |
| 20260508181013 | 64 | 263 | 3.5 | 5.2 | 0.00 | 0.00 | 0.00 | 36 | 1020.1 |
| 20260508180013 | 64 | 147 | 0.9 | 2.6 | 0.00 | 0.00 | 0.00 | 35 | 1020.1 |
| 20260508175031 | 63 | 34 | 1.7 | 3.5 | 0.00 | 0.00 | 0.00 | 36 | 1020.2 |
| 20260508174028 | 62 | 147 | 1.7 | 2.6 | 0.00 | 0.00 | 0.00 | 37 | 1020.4 |
| 20260508173113 | 61 | 70 | 1.7 | 2.6 | 0.00 | 0.00 | 0.00 | 36 | 1020.4 |
| 20260508170130 | 61 | 268 | 0.9 | 1.7 | 0.00 | 0.00 | 0.00 | 38 | 1021.1 |
| 20260508165112 | 62 | 38 | 0.9 | 2.6 | 0.00 | 0.00 | 0.00 | 35 | 1021.1 |
| 20260508164115 | 61 | 203 | 0.9 | 2.6 | 0.00 | 0.00 | 0.00 | 36 | 1021.1 |
| 20260508163112 | 61 | 136 | 1.7 | 3.5 | 0.00 | 0.00 | 0.00 | 35 | 1021.1 |
| 20260508162115 | 61 | 143 | 1.7 | 3.5 | 0.00 | 0.00 | 0.00 | 36 | 1021.2 |
| 20260508160129 | 60 | 49 | 0.0 | 1.7 | 0.00 | 0.00 | 0.00 | 35 | 1021.6 |
| 20260508155113 | 60 | 174 | 1.7 | 3.5 | 0.00 | 0.00 | 0.00 | 37 | 1021.7 |
| 20260508154212 | 59 | 134 | 1.7 | 2.6 | 0.00 | 0.00 | 0.00 | 36 | 1021.7 |
| 20260508153114 | 59 | 173 | 1.7 | 3.5 | 0.00 | 0.00 | 0.00 | 39 | 1021.7 |
| 20260508151113 | 57 | 67 | 0.0 | 1.7 | 0.00 | 0.00 | 0.00 | 43 | 1021.7 |
| 20260508150113 | 56 | 70 | 0.9 | 1.7 | 0.00 | 0.00 | 0.00 | 45 | 1021.8 |
| 20260508145212 | 54 | 75 | 0.0 | 2.6 | 0.00 | 0.00 | 0.00 | 48 | 1021.8 |
| 20260508144212 | 54 | 157 | 1.7 | 2.6 | 0.00 | 0.00 | 0.00 | 47 | 1021.8 |
| 20260508143212 | 54 | 225 | 0.0 | 0.0 | 0.00 | 0.00 | 0.00 | 46 | 1021.7 |
| 20260508141213 | 53 | 233 | 0.9 | 3.5 | 0.00 | 0.00 | 0.00 | 45 | 1021.7 |
| 20260508135228 | 53 | 243 | 0.0 | 0.9 | 0.00 | 0.00 | 0.00 | 44 | 1021.7 |
| 20260508134315 | 52 | 270 | 0.0 | 0.0 | 0.00 | 0.00 | 0.00 | 46 | 1021.7 |
| 20260508133314 | 51 | 180 | 0.0 | 0.9 | 0.00 | 0.00 | 0.00 | 46 | 1021.5 |
| 20260508132312 | 51 | 157 | 0.0 | 2.6 | 0.00 | 0.00 | 0.00 | 47 | 1021.4 |
| 20260508131312 | 50 | 7 | 0.0 | 0.0 | 0.00 | 0.00 | 0.00 | 49 | 1021.3 |
| 20260508130314 | 49 | 202 | 0.0 | 0.0 | 0.00 | 0.00 | 0.00 | 51 | 1021.5 |
| 20260508125312 | 47 | 202 | 0.0 | 0.0 | 0.00 | 0.00 | 0.00 | 56 | 1021.3 |
| 20260508124314 | 45 | 202 | 0.0 | 0.0 | 0.00 | 0.00 | 0.00 | 69 | 1021.3 |
| 20260508123412 | 43 | 45 | 0.0 | 0.0 | 0.00 | 0.00 | 0.00 | 74 | 1021.2 |
| 20260508121512 | 39 | 45 | 0.0 | 0.0 | 0.00 | 0.00 | 0.00 | 83 | 1020.8 |
| 20260508120514 | 37 | 45 | 0.0 | 0.0 | 0.00 | 0.00 | 0.00 | 88 | 1020.7 |
| 20260508115613 | 37 | 45 | 0.0 | 0.0 | 0.00 | 0.00 | 0.00 | 87 | 1020.4 |
| 20260508114614 | 36 | 45 | 0.0 | 0.0 | 0.00 | 0.00 | 0.00 | 86 | 1020.4 |
| 20260508113615 | 36 | 45 | 0.0 | 0.0 | 0.00 | 0.01 | 0.00 | 89 | 1020.1 |
| 20260508112615 | 36 | 45 | 0.0 | 0.0 | 0.00 | 0.02 | 0.00 | 87 | 1019.9 |
| 20260508111613 | 36 | 45 | 0.0 | 0.0 | 0.00 | 0.02 | 0.00 | 85 | 1019.8 |
| 20260508110630 | 36 | 45 | 0.0 | 0.0 | 0.00 | 0.02 | 0.00 | 85 | 1019.7 |
| 20260508105712 | 36 | 45 | 0.0 | 0.0 | 0.00 | 0.02 | 0.00 | 85 | 1019.5 |
| 20260508104812 | 36 | 45 | 0.0 | 0.0 | 0.00 | 0.02 | 0.00 | 85 | 1019.4 |
| 20260508103813 | 36 | 45 | 0.0 | 0.0 | 0.00 | 0.03 | 0.00 | 86 | 1019.2 |
| 20260508102826 | 37 | 45 | 0.0 | 0.0 | 0.00 | 0.03 | 0.00 | 85 | 1018.9 |
| 20260508101826 | 37 | 45 | 0.0 | 0.0 | 0.00 | 0.04 | 0.00 | 85 | 1018.7 |
| 20260508100826 | 37 | 45 | 0.0 | 0.0 | 0.00 | 0.04 | 0.00 | 86 | 1018.5 |
| 20260508095826 | 37 | 45 | 0.0 | 0.0 | 0.00 | 0.04 | 0.00 | 86 | 1018.4 |
| 20260508093828 | 37 | 45 | 0.0 | 1.7 | 0.00 | 0.04 | 0.00 | 86 | 1018.3 |
| 20260508092826 | 37 | 45 | 0.0 | 0.0 | 0.00 | 0.04 | 0.00 | 87 | 1018.4 |
| 20260508090826 | 37 | 22 | 0.0 | 0.9 | 0.00 | 0.04 | 0.00 | 88 | 1018.1 |
| 20260508085826 | 37 | 135 | 0.0 | 0.0 | 0.00 | 0.04 | 0.00 | 89 | 1018.3 |
| 20260508084826 | 37 | 135 | 0.0 | 0.0 | 0.00 | 0.04 | 0.00 | 89 | 1018.2 |
| 20260508083924 | 38 | 135 | 0.0 | 0.0 | 0.00 | 0.04 | 0.00 | 89 | 1018.3 |
| 20260508081927 | 38 | 135 | 0.0 | 0.0 | 0.00 | 0.04 | 0.00 | 89 | 1018.4 |
| 20260508081025 | 39 | 135 | 0.0 | 0.0 | 0.00 | 0.04 | 0.00 | 88 | 1018.3 |
| 20260508080925 | 39 | 135 | 0.0 | 0.0 | 0.00 | 0.04 | 0.00 | 88 | 1018.3 |
| 20260508075925 | 39 | 135 | 0.0 | 0.0 | 0.00 | 0.04 | 0.00 | 86 | 1018.3 |
| 20260508074926 | 40 | 135 | 0.0 | 0.0 | 0.00 | 0.04 | 0.00 | 88 | 1018.2 |
| 20260508073925 | 40 | 135 | 0.0 | 0.0 | 0.00 | 0.04 | 0.00 | 85 | 1018.2 |
| 20260508072925 | 40 | 67 | 0.0 | 0.9 | 0.00 | 0.04 | 0.00 | 87 | 1018.1 |
| 20260508071943 | 40 | 69 | 0.0 | 2.6 | 0.00 | 0.04 | 0.00 | 88 | 1018.1 |
| 20260508070925 | 41 | 202 | 0.0 | 0.0 | 0.00 | 0.04 | 0.00 | 89 | 1018.1 |
| 20260508065942 | 41 | 135 | 0.0 | 0.0 | 0.00 | 0.04 | 0.00 | 89 | 1018.1 |
| 20260508064927 | 41 | 90 | 0.0 | 0.0 | 0.00 | 0.04 | 0.00 | 89 | 1018.1 |
| 20260508061925 | 42 | 157 | 0.0 | 0.9 | 0.00 | 0.04 | 0.00 | 91 | 1018.2 |
| 20260508061824 | 42 | 157 | 0.0 | 0.0 | 0.00 | 0.04 | 0.00 | 91 | 1018.3 |
| 20260508060825 | 42 | 94 | 0.0 | 0.9 | 0.00 | 0.04 | 0.00 | 92 | 1018.2 |
| 20260508055825 | 42 | 112 | 0.0 | 0.0 | 0.00 | 0.04 | 0.00 | 93 | 1018.2 |
| 20260508054825 | 42 | 112 | 0.0 | 3.5 | 0.00 | 0.04 | 0.00 | 93 | 1018.3 |
| 20260508053824 | 42 | 67 | 0.0 | 0.0 | 0.00 | 0.04 | 0.00 | 93 | 1018.4 |
| 20260508051924 | 41 | 5 | 0.0 | 3.5 | 0.00 | 0.04 | 0.00 | 93 | 1018.2 |
| 20260508050926 | 41 | 135 | 0.0 | 1.7 | 0.00 | 0.04 | 0.00 | 93 | 1018.4 |
| 20260508045942 | 41 | 135 | 0.0 | 0.0 | 0.00 | 0.04 | 0.00 | 93 | 1018.5 |
| 20260508045024 | 41 | 157 | 0.0 | 0.0 | 0.00 | 0.04 | 0.00 | 93 | 1018.4 |
| 20260508042126 | 41 | 22 | 0.0 | 0.0 | 0.00 | 0.05 | 0.00 | 93 | 1018.3 |
| 20260508041128 | 42 | 22 | 0.0 | 0.9 | 0.00 | 0.06 | 0.00 | 93 | 1018.2 |
| 20260508040225 | 42 | 22 | 0.0 | 0.0 | 0.00 | 0.06 | 0.00 | 94 | 1018.4 |
| 20260508035314 | 41 | 53 | 0.0 | 0.9 | 0.00 | 0.06 | 0.06 | 93 | 1018.4 |
| 20260508034313 | 41 | 90 | 0.0 | 0.0 | 0.00 | 0.06 | 0.06 | 93 | 1018.2 |
| 20260508032415 | 42 | 90 | 0.0 | 0.0 | 0.00 | 0.06 | 0.06 | 93 | 1018.4 |
| 20260508031416 | 41 | 157 | 0.0 | 0.0 | 0.00 | 0.06 | 0.06 | 93 | 1018.4 |
| 20260508030513 | 41 | 157 | 0.0 | 0.0 | 0.00 | 0.06 | 0.06 | 93 | 1018.3 |
| 20260508025515 | 41 | 157 | 0.0 | 0.0 | 0.00 | 0.06 | 0.06 | 92 | 1018.2 |
| 20260508024614 | 42 | 157 | 0.0 | 0.0 | 0.00 | 0.06 | 0.06 | 92 | 1018.0 |
| 20260508024514 | 42 | 157 | 0.0 | 0.0 | 0.00 | 0.06 | 0.06 | 92 | 1017.9 |
| 20260508023515 | 42 | 157 | 0.0 | 0.0 | 0.00 | 0.06 | 0.06 | 91 | 1017.9 |
| 20260508022613 | 42 | 157 | 0.0 | 0.0 | 0.00 | 0.06 | 0.06 | 91 | 1018.0 |
| 20260508021631 | 42 | 157 | 0.0 | 0.0 | 0.00 | 0.06 | 0.06 | 91 | 1017.9 |
| 20260508020613 | 43 | 157 | 0.0 | 0.0 | 0.00 | 0.07 | 0.06 | 91 | 1018.1 |
| 20260508015615 | 43 | 157 | 0.0 | 0.0 | 0.00 | 0.07 | 0.06 | 90 | 1017.7 |
| 20260508014614 | 43 | 157 | 0.0 | 0.0 | 0.00 | 0.07 | 0.06 | 91 | 1017.5 |
| 20260508013613 | 43 | 157 | 0.0 | 0.0 | 0.00 | 0.08 | 0.06 | 91 | 1017.5 |
| 20260508012628 | 43 | 157 | 0.0 | 0.0 | 0.00 | 0.10 | 0.06 | 91 | 1017.2 |
| 20260508011716 | 43 | 112 | 0.9 | 2.6 | 0.00 | 0.10 | 0.06 | 91 | 1017.1 |
| 20260508005812 | 43 | 79 | 0.0 | 0.9 | 0.00 | 0.11 | 0.06 | 91 | 1016.9 |
| 20260508004813 | 43 | 112 | 0.0 | 0.0 | 0.00 | 0.11 | 0.06 | 90 | 1016.7 |
| 20260508003814 | 43 | 135 | 0.0 | 0.0 | 0.00 | 0.11 | 0.06 | 90 | 1016.7 |
| 20260508002814 | 43 | 112 | 0.0 | 0.9 | 0.00 | 0.11 | 0.06 | 90 | 1016.4 |
| 20260508001815 | 44 | 157 | 0.0 | 0.9 | 0.00 | 0.11 | 0.06 | 89 | 1016.5 |
| 20260508000813 | 44 | 135 | 0.9 | 1.7 | 0.00 | 0.11 | 0.06 | 89 | 1016.5 |
| 20260507235814 | 44 | 135 | 1.7 | 3.5 | 0.00 | 0.11 | 0.06 | 87 | 1016.6 |
| 20260507234815 | 44 | 53 | 0.9 | 3.5 | 0.00 | 0.12 | 0.06 | 88 | 1016.6 |
| 20260507233913 | 44 | 142 | 1.7 | 3.5 | 0.00 | 0.13 | 0.06 | 86 | 1016.8 |
| 20260507232931 | 45 | 201 | 0.9 | 3.5 | 0.00 | 0.15 | 0.06 | 87 | 1016.7 |
| 20260507231915 | 45 | 20 | 0.0 | 0.0 | 0.00 | 0.15 | 0.06 | 86 | 1016.7 |
| 20260507231013 | 45 | 180 | 0.0 | 0.0 | 0.00 | 0.16 | 0.06 | 86 | 1016.7 |
| 20260507230014 | 45 | 146 | 0.9 | 2.6 | 0.00 | 0.16 | 0.06 | 85 | 1016.7 |
| 20260507225112 | 46 | 194 | 1.7 | 3.5 | 0.00 | 0.16 | 0.06 | 86 | 1016.7 |
| 20260507224114 | 46 | 18 | 2.6 | 6.1 | 0.00 | 0.18 | 0.06 | 87 | 1016.7 |
| 20260507223213 | 46 | 135 | 0.0 | 0.9 | 0.00 | 0.18 | 0.06 | 88 | 1016.7 |
| 20260507221231 | 47 | 78 | 0.0 | 2.6 | 0.00 | 0.18 | 0.06 | 86 | 1016.5 |
| 20260507220216 | 46 | 157 | 0.0 | 0.9 | 0.00 | 0.18 | 0.06 | 86 | 1016.3 |
| 20260507214312 | 47 | 256 | 0.0 | 0.9 | 0.00 | 0.19 | 0.06 | 86 | 1016.3 |
| 20260507213314 | 48 | 202 | 0.0 | 0.0 | 0.00 | 0.19 | 0.06 | 85 | 1016.3 |
| 20260507213212 | 48 | 202 | 0.0 | 0.0 | 0.00 | 0.19 | 0.06 | 85 | 1016.2 |
| 20260507212213 | 48 | 15 | 1.7 | 3.5 | 0.00 | 0.19 | 0.06 | 85 | 1016.0 |
| 20260507211214 | 49 | 124 | 0.0 | 1.7 | 0.00 | 0.19 | 0.06 | 84 | 1015.9 |
| 20260507210214 | 50 | 356 | 0.9 | 2.6 | 0.00 | 0.19 | 0.06 | 83 | 1016.0 |
| 20260507205314 | 51 | 12 | 0.9 | 3.5 | 0.00 | 0.19 | 0.06 | 81 | 1015.9 |
| 20260507204314 | 52 | 152 | 0.0 | 0.9 | 0.00 | 0.19 | 0.06 | 79 | 1015.7 |
| 20260507203315 | 53 | 325 | 0.9 | 3.5 | 0.00 | 0.19 | 0.06 | 78 | 1015.6 |
| 20260507202314 | 53 | 125 | 0.9 | 2.6 | 0.00 | 0.19 | 0.06 | 76 | 1015.7 |
| 20260507201314 | 55 | 43 | 0.9 | 1.7 | 0.00 | 0.19 | 0.06 | 75 | 1015.6 |
| 20260507200314 | 55 | 140 | 0.9 | 3.5 | 0.00 | 0.19 | 0.06 | 75 | 1015.4 |
| 20260507195314 | 56 | 157 | 0.0 | 1.7 | 0.00 | 0.19 | 0.06 | 73 | 1015.4 |
| 20260507194329 | 58 | 55 | 0.0 | 1.7 | 0.00 | 0.19 | 0.06 | 71 | 1015.6 |
| 20260507193412 | 59 | 11 | 1.7 | 4.3 | 0.00 | 0.19 | 0.06 | 70 | 1015.4 |
| 20260507192431 | 58 | 113 | 0.9 | 2.6 | 0.00 | 0.19 | 0.06 | 74 | 1015.5 |
| 20260507191413 | 56 | 116 | 0.0 | 1.7 | 0.00 | 0.19 | 0.06 | 76 | 1015.3 |
| 20260507190415 | 57 | 311 | 0.0 | 1.7 | 0.00 | 0.19 | 0.06 | 74 | 1015.6 |